EHI
0 0 0 0 0 0 0 0 0 0 0 0 0 1 3 4 4 4 5 7 6 3 2 3 4 4 3 3 5 9 11 13 12 8 6 6 6 4 2 3 3 3 3 2
0 0 0 0 0 0 0 0 0 0 0 0 0 0 2 4 5 5 6 6 5 4 3 3 4 5 5 6 8 11 13 14 13 10 8 7 6 4 3 3 3 3 3 3
0 0 0 0 0 0 0 0 0 0 0 0 0 0 2 4 6 7 8 7 5 4 4 4 6 7 7 8 9 11 15 18 17 14 10 9 8 6 5 4 4 3 3 3
0 0 0 0 0 0 0 0 0 0 0 0 0 0 1 4 6 8 10 10 8 6 5 6 7 8 7 6 6 11 18 22 21 17 14 12 11 9 7 6 5 4 3 3
0 0 0 0 0 0 0 0 0 0 0 0 0 0 1 3 5 7 10 10 9 7 6 7 10 10 8 5 5 11 20 26 25 21 18 16 13 11 10 10 8 5 4 4
0 0 0 0 0 0 0 0 0 0 0 0 0 0 0 1 3 4 6 7 7 6 7 9 12 13 11 7 7 12 20 26 26 23 20 17 14 11 11 12 9 6 5 6
0 0 0 0 0 0 0 0 0 0 0 0 0 0 0 0 1 2 2 3 4 5 7 10 14 15 13 11 11 15 23 27 27 25 21 17 14 11 11 10 8 6 7 9
0 0 0 0 0 0 0 0 0 0 0 0 0 0 0 0 0 1 1 2 4 5 7 11 14 14 13 14 15 19 24 27 27 25 21 18 16 14 12 11 8 7 8 10
0 0 0 0 0 0 0 0 0 0 0 0 0 0 2 2 3 3 2 3 6 8 9 13 15 15 14 14 16 18 23 27 25 20 17 15 16 17 16 15 13 10 10 10
0 0 0 0 0 0 0 0 0 0 0 0 0 0 3 6 7 6 4 4 6 7 9 14 17 17 15 14 15 16 21 24 21 15 11 11 14 17 17 17 16 14 11 10
0 0 0 0 0 0 0 0 0 0 0 0 0 0 3 7 9 9 7 5 4 4 5 9 14 16 15 15 15 17 19 21 18 14 12 11 12 14 16 16 16 16 14 12
0 0 0 0 0 0 0 0 0 0 0 0 0 0 2 6 8 9 9 6 2 1 1 4 9 12 14 15 16 17 18 17 16 15 14 12 12 14 14 15 16 16 16 16
0 0 0 0 0 0 0 0 0 0 0 0 0 1 3 5 6 7 7 5 2 0 0 3 7 11 15 18 18 17 17 17 15 14 14 14 15 15 15 15 15 15 16 17
0 0 0 0 0 0 0 0 0 0 0 0 0 1 3 5 4 4 4 3 2 1 1 3 6 11 16 20 18 16 17 18 16 15 14 16 16 14 14 15 15 14 14 15
0 0 0 0 0 0 0 0 0 0 1 0 0 1 4 5 3 1 1 2 3 3 3 4 7 12 16 18 17 16 17 18 18 17 17 16 14 11 11 13 13 13 13 13
0 0 0 0 0 0 0 0 0 0 0 0 0 1 3 4 2 0 0 2 4 5 5 6 9 12 13 15 17 18 19 19 20 19 16 14 12 10 11 12 12 12 12 11
0 0 0 0 0 0 0 0 0 0 0 0 0 0 1 1 0 0 1 3 4 5 6 7 9 11 13 15 17 19 20 20 20 18 15 12 11 12 12 12 12 10 10 10
0 0 0 0 0 0 0 0 0 0 0 0 0 0 0 0 0 1 2 3 3 4 6 7 8 11 14 16 17 18 19 19 18 18 15 12 10 11 12 12 11 10 9 10
0 0 0 0 0 0 0 0 0 0 0 0 0 0 0 0 1 2 3 3 3 5 7 8 9 11 14 17 18 18 17 17 17 17 16 14 12 12 12 11 10 9 10 10
0 0 0 0 0 0 0 0 0 0 0 0 0 0 0 0 1 3 5 5 5 6 8 9 11 12 14 16 18 18 18 17 17 16 17 17 16 15 13 11 10 9 10 10
0 0 0 0 0 0 0 0 0 1 1 0 0 0 0 0 2 5 6 7 7 7 8 10 12 14 15 17 18 18 18 18 18 17 17 19 19 17 15 12 11 10 9 9
0 0 0 0 0 0 0 0 0 1 1 0 0 0 1 2 4 6 8 7 7 6 7 9 12 13 15 17 18 17 16 17 18 18 18 19 18 16 13 12 11 10 9 9
0 0 0 0 0 0 0 0 0 1 1 0 0 1 3 5 7 8 8 7 5 5 6 7 7 9 13 16 17 16 14 14 15 17 17 16 14 12 10 9 10 9 9 8
0 0 0 0 0 0 0 0 0 0 0 0 1 2 3 5 7 8 8 7 5 5 5 5 5 6 10 12 12 12 12 12 13 14 13 10 8 7 7 8 8 8 8 8
0 0 0 0 0 0 0 0 0 0 0 1 2 3 3 5 7 8 9 8 6 6 5 6 6 7 8 10 10 9 11 12 12 11 8 5 5 6 7 7 6 6 6 6
0 0 0 0 0 0 0 0 0 0 1 2 3 3 4 6 8 9 10 9 7 6 6 7 8 8 8 9 10 10 10 11 11 9 5 4 6 8 8 6 4 3 3 3
Wind_Speed
5 6 4 3 4 5 4 3 1 2 2 3 2 1 4 6 6 5 5 5 5 4 4 5 5 5 5 4 4 5 5 4 3 2 2 1 1 1 1 1 1 2 2 2
7 5 2 3 3 5 4 4 2 3 2 3 2 2 3 5 6 5 4 5 5 6 5 5 6 5 5 5 5 5 5 4 4 3 2 1 0 1 0 1 0 1 2 3
7 0 1 3 4 5 5 4 1 1 3 5 4 5 5 5 5 4 4 4 5 5 5 5 6 6 6 5 5 4 4 4 4 3 2 1 1 1 1 1 1 1 2 3
6 2 3 5 4 6 3 1 2 4 6 3 5 1 5 5 5 5 5 4 5 5 5 5 6 6 6 5 5 5 5 4 4 3 2 2 2 1 1 2 1 2 2 3
4 3 4 5 2 4 1 0 3 5 5 3 3 4 5 5 4 5 5 5 5 5 5 5 5 6 5 5 5 5 5 4 4 4 3 3 2 2 2 2 1 3 2 3
5 3 3 2 0 2 4 4 5 7 7 4 0 5 3 3 1 2 4 4 5 5 5 5 5 5 5 5 5 5 5 5 4 4 4 3 3 3 3 3 2 3 2 2
8 7 5 4 5 7 7 7 5 5 5 1 2 4 3 4 2 1 2 3 4 5 5 5 5 5 5 5 5 5 6 5 5 5 4 4 4 5 4 4 3 3 2 1
8 7 6 4 6 5 6 8 6 5 3 1 4 2 4 4 2 2 2 3 4 5 5 6 6 5 5 5 5 5 6 5 4 4 4 3 4 4 3 3 3 3 3 2
5 4 4 2 3 6 6 6 6 7 5 5 2 2 4 3 3 3 4 4 4 4 5 5 6 5 5 5 5 5 6 5 5 4 4 4 3 3 3 3 3 3 2 2
5 5 4 4 6 2 5 4 5 6 5 6 3 3 1 4 4 4 4 4 4 5 5 5 4 4 4 4 5 5 5 4 4 4 3 3 3 3 4 3 2 3 3 2
7 7 5 6 6 4 5 6 6 5 7 8 5 1 5 1 2 4 5 4 5 5 5 5 4 4 3 3 4 5 4 4 3 3 3 3 3 3 3 3 3 3 3 3
6 8 6 5 2 3 4 5 7 7 5 7 7 1 6 3 2 3 4 4 4 4 4 4 5 4 3 3 3 3 2 2 2 2 2 2 2 2 3 2 2 2 2 2
3 7 8 8 8 6 4 4 6 8 7 7 7 0 5 4 3 3 3 4 4 3 3 4 4 4 3 3 3 3 2 2 1 2 2 1 1 1 1 1 1 1 1 1
5 7 8 8 4 3 5 5 6 8 7 6 6 3 1 2 2 3 3 3 3 3 3 3 3 3 3 3 3 3 3 2 2 1 1 1 0 0 0 1 1 1 0 0
6 7 7 7 5 5 5 5 6 7 7 8 5 3 1 1 1 2 2 3 3 3 3 3 3 3 3 3 2 2 2 2 2 2 1 1 1 1 1 1 1 1 1 1
4 5 7 8 7 6 7 6 6 6 6 6 6 2 2 1 1 1 2 2 2 2 2 2 3 3 3 3 3 2 2 2 2 2 2 1 1 1 1 1 1 1 0 1
5 5 7 8 7 10 9 6 6 5 4 6 6 3 0 1 1 1 1 2 2 2 2 1 1 2 2 3 3 2 2 2 2 2 2 1 1 1 1 1 1 1 1 0
5 6 6 7 7 11 1 1 3 5 4 4 4 2 1 1 1 1 1 1 1 1 2 1 1 1 2 2 2 2 3 3 3 3 2 2 2 2 2 2 2 2 1 1
6 7 7 7 10 8 4 3 3 5 4 1 3 1 1 1 3 3 2 1 1 1 1 1 1 1 2 2 2 3 3 3 3 3 3 3 3 3 3 3 3 2 2 2
5 7 8 8 10 9 2 3 1 6 6 2 1 1 0 2 5 2 3 2 1 1 1 1 1 0 1 1 2 3 3 3 3 4 4 3 4 4 4 4 3 3 3 3
8 8 9 10 10 5 3 2 4 7 1 3 0 0 1 2 4 3 2 2 1 1 1 1 0 0 0 1 2 3 3 3 3 3 4 4 4 4 4 3 3 3 4 3
7 7 8 8 10 4 4 3 2 3 4 1 0 0 1 1 2 1 1 1 1 1 1 1 1 1 1 1 2 3 4 4 3 3 4 4 4 4 3 2 3 4 4 4
5 4 4 4 2 4 2 2 2 1 1 1 1 1 1 1 1 1 1 1 1 1 1 2 2 2 2 2 2 3 3 4 3 3 3 4 4 4 3 3 4 4 4 4
3 2 3 3 2 1 1 1 1 0 1 1 0 0 0 1 1 1 1 1 1 1 1 2 2 2 3 3 3 4 3 3 3 4 4 3 4 4 3 3 4 4 4 4
2 3 4 5 3 3 2 1 1 0 1 1 0 0 1 1 1 1 1 1 1 1 1 2 2 3 3 3 3 3 3 3 4 4 4 4 4 3 3 3 3 4 3 3
4 5 6 4 2 4 1 1 2 2 2 2 1 1 1 1 1 1 1 1 2 2 2 2 3 4 4 4 4 4 4 4 4 4 3 3 3 3 3 3 2 1 3 2
Wind_Direction
206 234 247 275 282 313 313 292 321 81 115 218 215 182 152 166 185 182 174 171 169 181 179 173 173 174 170 171 175 179 178 176 189 190 203 203 193 206 220 208 211 243 263 262
212 224 273 286 251 248 249 242 197 144 148 245 216 196 161 176 192 191 186 182 176 174 177 178 178 179 180 178 182 186 185 184 196 188 205 207 245 247 244 311 247 257 270 279
240 46 152 228 220 231 238 262 255 185 185 205 229 187 165 163 184 188 192 191 181 178 177 176 180 185 185 182 182 183 188 185 193 194 194 169 177 223 218 239 223 258 270 280
235 216 224 235 229 250 231 305 242 204 227 182 254 232 145 158 180 189 189 186 183 181 182 181 182 187 189 188 181 180 181 177 177 183 192 214 225 248 248 257 242 258 254 271
201 197 229 243 262 261 15 120 217 223 247 241 221 270 115 152 185 182 181 184 184 185 184 185 187 183 186 186 182 176 174 176 178 187 188 221 241 258 256 260 250 266 248 253
236 205 249 275 136 173 149 172 200 224 241 241 315 283 106 115 161 172 160 171 180 181 180 179 173 168 177 175 176 172 170 178 185 192 198 215 235 253 269 266 256 251 239 252
205 197 185 202 193 176 213 232 225 217 221 172 114 263 54 71 72 170 158 157 165 169 171 167 164 165 173 174 174 172 170 178 186 191 199 207 224 236 241 260 252 266 271 269
218 198 182 207 248 240 230 261 283 294 296 148 177 249 78 86 91 115 142 148 150 157 161 163 163 164 169 170 175 177 171 179 185 191 194 207 226 243 247 253 277 271 288 303
242 212 152 183 255 261 234 248 288 280 276 274 208 146 132 131 141 137 141 147 147 150 153 157 160 161 166 170 175 180 174 178 186 195 200 207 228 251 269 267 263 274 287 295
262 250 184 171 197 191 282 263 243 262 280 273 229 215 163 154 165 164 160 159 151 153 145 143 146 154 164 169 170 174 176 180 192 199 214 210 222 236 249 257 269 288 294 304
252 248 212 204 231 240 212 225 266 275 284 287 284 56 60 101 166 172 165 160 153 163 157 151 149 149 154 160 163 166 174 177 184 197 205 228 226 227 238 250 262 270 280 279
237 254 246 221 170 293 270 268 258 263 262 278 287 55 82 83 130 163 161 157 155 164 161 155 151 146 151 157 158 155 167 171 169 176 204 215 237 251 252 262 275 282 278 273
228 254 243 215 192 192 229 244 255 266 264 267 273 83 100 98 106 132 152 153 155 166 167 161 153 152 156 160 160 162 175 184 174 171 187 156 208 273 311 329 327 322 296 292
260 252 262 268 281 236 220 224 239 251 258 263 272 292 121 114 124 133 148 156 163 169 176 177 168 170 163 165 164 172 180 177 172 189 206 136 193 260 324 360 11 4 346 354
249 246 244 257 262 259 250 238 227 243 271 282 290 295 18 86 162 150 158 173 170 170 185 191 187 177 176 173 174 180 183 176 184 197 211 191 207 147 113 80 69 47 2 37
250 252 242 240 236 238 244 245 240 243 261 268 272 294 51 119 140 156 179 206 204 192 197 190 187 186 192 192 192 185 185 190 192 203 209 207 215 157 143 143 129 114 90 1
223 233 249 247 234 239 234 241 243 241 249 267 273 299 6 181 172 172 182 234 247 231 226 208 196 195 204 205 202 210 210 202 204 212 218 217 225 202 191 195 162 179 208 241
237 243 252 254 233 243 242 98 256 249 244 265 290 329 303 300 200 142 119 272 278 271 271 245 226 209 206 204 194 206 212 211 212 216 221 218 229 227 216 210 211 223 237 240
236 235 251 252 242 238 191 183 229 243 239 262 279 303 342 316 221 155 73 347 292 288 306 297 254 210 179 191 196 210 220 214 215 219 223 220 226 232 230 231 234 231 238 245
197 226 243 244 254 253 196 132 227 252 229 128 278 277 238 261 256 93 54 18 4 37 35 5 353 195 164 190 203 221 235 235 238 237 238 234 229 230 238 241 242 241 245 252
199 209 232 243 252 248 84 122 198 239 37 92 82 42 274 291 338 34 38 32 37 34 31 35 354 294 297 230 236 245 256 260 258 251 245 241 234 234 236 241 241 243 246 251
238 228 225 240 249 235 96 182 243 19 47 62 353 351 315 9 23 26 18 26 30 21 12 4 7 352 331 286 259 261 270 277 266 254 247 243 242 249 239 235 243 245 250 245
251 291 283 279 323 61 73 54 51 33 30 46 3 352 356 3 355 345 340 338 340 347 350 339 341 338 332 318 290 282 294 292 273 255 253 252 248 251 251 247 247 242 241 256
184 274 265 249 188 149 130 145 139 62 342 346 4 31 304 305 331 335 332 317 305 312 327 314 321 330 336 332 316 305 302 290 270 260 260 257 252 252 248 258 259 263 264 267
290 236 240 239 234 228 202 240 272 248 247 192 175 328 336 327 294 287 291 288 285 296 317 319 316 322 323 318 311 309 306 289 278 268 264 258 251 252 251 254 272 272 279 301
246 250 258 267 273 276 285 316 281 253 248 235 235 227 282 295 280 268 266 286 284 290 305 308 309 311 317 316 314 313 300 284 275 265 259 258 252 246 253 258 262 251 258 243